Location: Observatory
(52.1446°N, 0.4624°W)
Time: 03:18:56
(UTC+01:00)

ISS - Pass Details

Date: 26 July 2021
Orbit: 419 x 421 km, 51.6° (Epoch: 03 August)

Event Time Altitude Azimuth Distance (km) Brightness Sun altitude
Rises 22:53:43 0° 282° (WNW) 2,374 0.8 -12.8°
Reaches altitude 10° 22:56:00 10° 271° (W) 1,507 -0.5 -13.0°
Maximum altitude 22:58:56 28° 210° (SSW) 826 -2.5 -13.3°
Enters shadow 23:00:04 23° 176° (S) 955 -2.5 -13.4°
